Theta_e
283 282 281 281 281 281 281 281 281 281 282 283 283 283 282 283 283 282 282 280 279 280 281 280 281 281 280 279 279 279 279 279 276 277 278 279 280 279 280 282 281 280 280
282 281 280 280 280 280 280 280 281 280 281 282 282 282 281 281 282 281 280 280 278 278 279 279 278 279 279 279 278 277 278 278 278 275 276 276 278 279 278 279 279 280 278
281 280 280 279 279 279 279 279 280 280 279 280 280 279 279 280 280 281 281 280 278 278 278 278 278 277 277 278 277 277 277 278 278 276 275 277 277 277 277 278 277 277 278
280 279 279 278 278 278 279 279 279 279 278 278 278 278 279 278 279 281 281 280 279 278 279 278 277 277 276 276 277 276 277 277 277 276 275 274 276 275 275 274 273 275 274
279 279 278 278 278 278 279 278 278 278 278 278 278 278 278 278 279 280 280 279 279 278 279 279 279 278 279 278 277 276 277 276 276 275 274 274 273 272 271 274 273 273 273
279 278 278 278 278 278 278 278 277 277 276 277 277 277 277 278 281 282 281 279 279 278 277 278 278 277 278 279 279 280 279 275 275 274 273 273 272 271 272 272 271 270 267
279 278 278 277 277 278 277 277 276 275 275 275 275 276 276 276 280 281 281 278 278 277 277 277 278 278 277 276 278 279 278 279 278 275 274 272 271 271 272 271 271 269 268
278 277 276 276 276 277 276 276 274 274 273 274 274 275 275 275 278 279 279 277 277 276 276 276 276 277 276 277 277 276 275 275 275 276 275 273 273 274 273 273 271 269 270
276 276 276 275 275 275 275 274 273 273 273 274 275 274 274 274 277 278 278 276 276 275 276 276 276 275 277 279 277 274 274 273 276 277 276 276 275 275 274 271 267 266 264
275 275 275 275 275 274 274 273 272 272 273 274 273 273 273 273 275 277 277 276 275 274 275 276 277 275 278 279 276 273 270 271 273 271 269 270 270 270 272 269 268 264 263
275 275 274 274 273 273 272 270 270 270 271 269 270 271 271 272 273 276 277 276 275 274 274 274 274 276 278 277 277 271 271 275 268 265 265 265 266 267 267 268 268 266 263
274 273 272 270 271 272 267 268 267 266 265 266 266 268 270 271 273 275 276 277 277 275 274 274 274 277 276 276 273 274 274 271 265 263 262 263 264 264 265 265 266 266 266
270 269 268 268 269 269 265 266 265 264 264 266 267 267 268 270 271 274 274 276 276 274 274 275 274 274 273 270 270 271 267 264 263 260 261 262 263 264 264 263 264 264 263
268 269 268 267 267 266 268 268 265 264 264 266 265 265 266 267 268 269 270 270 273 273 273 268 269 269 268 268 264 264 263 263 262 261 261 262 262 261 260 261 260 260 258
269 268 268 268 266 266 267 266 267 267 267 262 263 264 262 263 266 273 274 272 272 274 265 256 258 257 259 259 259 260 260 260 259 260 259 259 259 259 259 259 258 257 252
268 268 268 267 265 265 265 264 270 273 274 275 274 272 269 273 274 274 275 275 275 273 257 251 253 257 257 258 258 258 259 258 259 259 258 257 257 256 257 257 256 250 253
268 267 266 266 264 263 262 262 262 265 270 271 271 272 272 272 273 273 273 274 270 265 250 250 254 255 256 257 257 257 256 258 258 256 256 256 256 255 254 254 254 254 253
265 265 265 264 263 261 262 262 261 260 261 261 266 267 269 269 270 271 272 265 255 255 249 248 250 252 253 254 255 255 255 255 255 255 254 254 254 253 252 252 252 252 252
264 263 263 262 261 262 261 259 260 258 258 257 257 262 263 265 267 268 266 251 249 249 250 250 251 251 252 253 253 253 253 253 253 253 252 252 252 250 251 251 252 252 251
261 262 261 261 260 260 259 258 259 258 258 256 257 257 255 254 254 253 251 248 248 250 251 249 251 250 249 250 251 251 251 251 251 251 252 251 251 248 250 251 252 251 251
261 260 261 259 258 259 259 260 261 259 257 257 257 255 264 257 252 251 250 251 251 252 250 248 249 250 248 249 247 249 249 250 250 250 251 251 251 248 251 251 251 251 253
260 259 257 258 258 258 260 261 259 257 257 256 255 252 263 251 249 250 250 249 250 250 249 247 248 249 250 249 248 249 248 249 249 249 249 249 250 250 250 251 251 251 252
258 256 255 253 255 260 260 259 256 256 256 252 250 249 250 248 246 245 248 249 250 251 249 245 245 247 249 248 246 247 248 249 250 250 250 250 250 250 250 250 250 251 251
257 256 256 254 259 259 257 256 255 254 251 250 246 246 247 246 245 246 248 248 248 249 248 246 245 246 248 248 249 248 248 249 249 249 249 249 250 250 251 251 251 252 252
256 256 257 259 258 256 254 253 252 249 248 246 246 245 244 245 246 247 247 246 246 247 247 246 246 246 246 247 247 248 249 251 250 251 251 251 250 250 251 252 252 253 252
256 257 258 255 253 253 253 252 251 248 247 246 245 246 245 246 247 247 247 246 246 246 246 247 248 246 246 247 248 250 253 256 256 256 256 255 253 253 254 254 253 253 253
Wind_Speed
4 5 5 4 5 4 4 4 4 4 4 5 5 4 5 5 5 4 4 5 7 6 6 7 7 7 5 3 4 5 6 6 12 11 11 12 13 12 12 8 10 11 12
4 4 4 4 4 4 5 4 4 4 4 4 4 4 5 5 5 4 4 3 5 6 7 7 6 7 6 4 4 7 6 8 8 17 12 12 13 11 11 12 9 10 11
3 4 3 4 4 4 4 4 4 4 4 4 4 5 5 5 4 5 5 4 4 4 5 6 6 5 6 6 6 5 7 7 9 9 13 10 11 10 12 10 11 11 9
3 3 3 3 3 3 3 3 3 3 4 5 4 4 4 5 5 5 5 4 4 5 5 5 5 5 7 7 8 8 8 8 9 7 10 11 8 11 10 13 13 10 11
3 3 2 2 1 1 2 2 3 4 4 3 4 5 5 4 4 5 5 5 5 6 5 6 6 6 12 13 9 10 9 8 9 8 9 11 9 11 12 10 11 12 11
3 3 1 0 1 0 1 2 3 3 4 4 4 4 5 5 11 13 11 6 7 7 8 7 6 8 5 15 18 19 16 13 11 8 10 10 11 12 10 11 10 11 10
3 2 2 2 3 3 2 2 2 3 3 4 5 4 4 5 12 14 14 7 6 5 8 8 8 6 5 8 15 13 12 13 16 13 11 8 12 12 13 13 11 10 10
4 4 4 4 4 3 3 3 2 2 3 3 4 4 5 5 12 13 15 7 5 7 7 8 9 8 9 12 12 8 9 8 11 7 7 9 10 12 11 11 10 11 9
5 5 5 4 4 4 4 3 2 2 3 3 4 5 5 6 12 13 12 7 8 7 8 7 7 9 16 21 11 11 11 10 12 11 16 20 19 19 16 8 7 9 9
6 5 5 5 5 5 4 3 1 2 4 3 5 4 5 7 11 13 12 6 7 6 7 8 12 12 20 19 11 10 12 13 7 8 9 11 12 10 15 7 7 8 9
5 5 5 5 4 4 2 2 2 3 3 3 5 4 5 4 7 13 14 8 6 8 6 6 6 19 18 19 20 8 13 15 11 7 7 6 6 6 6 7 8 8 8
5 5 4 3 3 2 3 3 3 2 3 4 4 4 3 4 7 11 15 14 15 8 8 6 7 17 19 20 16 20 21 14 6 6 6 7 7 7 7 8 9 8 8
3 5 4 3 4 3 4 4 2 3 2 3 3 3 5 3 4 13 15 16 16 11 7 13 13 15 18 12 15 18 10 5 6 6 7 7 7 8 10 8 8 8 10
6 6 4 5 4 4 3 3 3 2 3 3 3 4 5 4 4 5 6 7 10 9 9 3 9 13 13 12 7 8 5 5 6 7 7 7 7 6 8 6 7 8 8
6 4 5 4 5 3 4 4 4 4 5 3 4 3 3 4 4 13 12 7 6 7 4 3 4 3 5 5 4 5 5 5 5 6 6 7 8 7 7 6 5 6 3
5 4 5 4 4 4 3 3 8 10 10 11 11 9 2 11 16 17 17 18 13 16 4 3 3 4 5 6 6 6 6 6 6 6 7 7 7 8 8 8 6 3 7
8 5 4 4 4 4 3 4 4 1 6 7 8 9 11 14 14 16 16 16 14 11 1 2 4 5 6 6 6 7 8 7 8 7 7 7 7 7 7 7 7 6 8
7 6 5 5 4 4 4 3 2 2 2 1 4 7 11 11 14 14 15 11 5 4 2 2 4 5 5 6 6 7 7 7 7 7 7 7 6 6 8 7 7 7 8
6 5 5 4 4 4 3 3 3 2 3 3 2 4 4 10 12 10 10 2 2 3 3 5 4 5 6 6 6 7 7 8 7 8 7 7 7 5 8 7 8 10 10
5 5 6 5 4 3 3 3 3 3 3 3 3 3 3 3 2 2 1 1 2 4 4 5 6 5 6 6 7 7 7 7 7 7 7 7 6 3 7 8 8 8 8
4 4 6 4 4 4 3 4 3 3 3 3 4 3 11 3 2 2 3 3 4 5 5 5 5 6 5 6 6 6 6 7 7 7 7 7 6 6 6 7 8 8 9
4 4 3 4 3 3 4 3 3 3 4 4 3 3 10 1 2 3 4 4 5 5 4 5 6 6 6 6 6 6 7 8 8 6 7 7 7 7 7 8 8 8 9
4 4 4 3 3 4 3 3 4 4 3 3 3 3 2 3 3 3 5 4 5 5 4 4 5 7 6 6 5 6 7 9 8 7 8 9 8 7 7 8 8 9 8
4 4 4 3 4 3 4 4 4 4 4 3 3 3 3 3 3 4 5 4 4 5 5 5 5 8 8 8 7 7 7 9 7 8 9 9 10 9 8 8 8 11 10
4 4 5 5 4 4 3 3 3 3 3 3 3 2 3 3 4 5 5 4 4 6 7 6 6 8 10 12 12 13 14 17 12 12 8 11 13 13 11 10 11 10 12
5 5 4 4 4 4 4 4 4 3 3 3 4 4 3 4 4 5 5 5 5 6 7 6 8 11 13 12 13 15 16 18 14 16 12 10 10 10 9 11 13 9 12
Wind_Direction
71 71 65 55 55 56 53 44 35 35 27 31 26 27 21 14 17 26 19 28 16 7 2 4 349 338 3 343 328 313 306 301 290 306 316 321 321 327 327 324 328 324 324
100 93 80 74 69 62 46 32 26 38 30 29 23 25 14 3 4 12 20 19 9 359 344 342 341 343 324 297 298 301 294 299 302 306 320 322 323 330 321 326 332 328 324
119 113 79 62 58 53 50 36 29 24 21 25 24 24 8 347 349 353 341 334 337 319 314 321 308 321 329 319 318 310 310 304 302 294 312 321 320 332 329 324 334 326 326
135 99 76 54 51 45 40 38 30 16 14 13 12 2 359 345 337 317 308 309 306 304 296 303 300 304 312 326 323 318 309 306 307 301 313 321 324 333 328 323 328 331 327
147 121 98 65 67 72 44 21 4 8 6 352 351 354 341 323 325 316 320 305 312 309 300 303 307 301 299 331 327 318 320 317 318 312 320 313 329 335 331 324 323 322 327
173 187 161 62 300 306 313 345 355 353 346 346 341 324 333 342 327 336 336 324 306 311 309 306 301 294 313 322 322 323 336 327 313 330 315 319 327 328 321 320 321 332 328
199 211 225 244 265 257 285 301 321 325 323 328 340 326 311 315 333 332 328 312 309 311 313 311 309 314 309 299 307 334 332 340 336 317 314 334 321 316 316 322 322 320 305
223 231 231 235 250 249 249 259 306 322 331 312 300 314 320 317 326 324 329 321 322 314 317 321 316 322 315 310 313 329 331 332 312 317 320 319 309 317 320 317 327 310 299
234 235 232 224 244 254 259 267 279 293 308 310 317 317 306 308 322 329 332 324 321 324 316 310 318 314 318 315 334 334 331 320 312 313 319 321 324 327 322 331 321 317 313
240 242 230 217 223 234 244 263 211 264 286 291 300 291 299 304 322 330 331 321 315 315 306 319 320 322 317 328 337 345 327 314 324 327 318 320 324 315 328 327 319 311 313
238 232 218 218 223 234 235 182 214 254 272 279 288 283 280 287 309 323 327 321 316 311 314 314 313 315 323 332 333 341 304 317 339 325 311 306 308 312 317 317 317 311 301
225 226 220 193 207 195 189 231 240 241 252 271 284 289 252 278 312 323 322 321 317 315 310 307 305 321 330 327 332 316 319 339 315 311 309 309 321 320 316 311 307 300 291
177 222 222 198 209 201 202 224 228 227 242 278 281 295 308 314 298 319 319 313 318 315 310 315 337 336 331 328 322 322 346 315 308 308 307 310 316 311 306 305 304 302 293
215 224 203 207 222 219 224 209 210 223 241 256 273 279 289 299 295 299 287 282 285 309 316 355 329 335 335 330 324 325 309 306 305 300 301 306 308 307 304 310 313 319 311
220 207 216 208 210 216 221 207 226 213 208 212 234 237 263 289 283 302 314 315 305 319 51 12 350 349 329 315 307 302 299 302 298 298 303 306 306 305 303 312 307 310 253
226 215 218 208 201 211 211 262 259 268 271 276 287 288 231 298 309 308 315 310 345 342 34 1 312 314 313 315 312 309 304 302 301 305 303 299 301 303 304 309 301 264 287
226 211 199 197 200 198 204 217 266 357 304 292 291 295 306 302 311 311 311 318 354 6 46 294 293 301 302 302 299 298 298 300 303 293 293 295 297 297 301 301 302 297 295
218 212 195 198 197 193 203 210 186 205 246 270 290 303 302 311 308 310 316 10 348 349 222 266 288 289 290 290 292 293 295 298 295 293 292 290 289 288 300 296 294 293 295
210 210 199 191 193 195 169 166 198 195 233 254 304 300 297 311 314 325 353 141 238 287 293 299 273 279 285 286 285 285 285 288 290 293 292 290 288 283 289 288 287 287 285
212 200 181 187 183 175 175 191 193 207 232 238 250 261 299 346 324 298 260 239 255 268 270 265 278 270 271 276 284 285 286 289 289 288 288 287 287 257 279 289 289 289 288
187 188 189 169 169 181 180 197 200 201 221 238 252 223 268 243 261 269 292 295 280 283 276 269 284 279 271 269 275 283 283 285 284 280 286 290 291 282 276 277 282 279 280
183 181 168 191 160 168 186 191 204 203 228 242 255 267 304 15 281 276 275 264 267 261 251 255 272 273 276 277 276 280 283 286 285 279 282 283 282 278 281 283 283 281 282
172 168 166 167 160 165 182 189 195 210 228 231 235 262 261 253 246 249 258 263 269 278 270 249 259 277 274 265 247 248 265 274 275 275 282 286 284 278 272 275 277 282 281
166 163 158 167 174 187 187 195 203 214 218 236 241 249 262 264 265 263 263 262 270 279 274 265 260 268 280 281 276 267 254 261 262 265 256 266 273 276 268 267 268 270 273
150 163 173 182 188 192 182 192 209 218 226 230 261 261 263 261 268 265 261 261 273 281 285 277 275 273 278 281 279 277 274 280 269 262 259 254 257 263 263 265 269 274 273
166 173 179 166 176 177 184 192 211 200 220 235 238 245 251 265 267 272 275 284 285 287 288 285 281 277 280 282 279 279 283 286 283 270 251 245 252 259 257 258 263 259 266